Location: DaVinci Observatory
(43.1080°N, 78.6453°W)
Time: 00:24:33
(UTC-04:00)

Tiangong 2 - Pass Details

Date: 09 October 2017
Orbit: 388 x 391 km, 42.8° (Epoch: 21 October)

Event Time Altitude Azimuth Distance (km) Brightness Sun altitude
Exits shadow 06:28:29 11° 231° (SW) 1,376 3.4 -10.5°
Maximum altitude 06:31:25 41° 160° (SSE) 577 2.1 -9.9°
Drops below altitude 10° 06:34:28 10° 88° (E) 1,423 5.6 -9.4°
Sets 06:36:37 0° 81° (E) 2,281 7.1 -9.0°
